Location: Colle Santa Colomba
(42.0333°N, 12.5667°E)
Time: 22:02:22
(UTC+00:00)

SKYMED 2 - Pass Details

Date: 25 October 2021
Orbit: 621 x 623 km, 97.9° (Epoch: 05 December)

Event Time Altitude Azimuth Distance (km) Brightness Sun altitude
Rises 17:20:12 0° 12° (NNE) 2,914 6.8 -13.1°
Reaches altitude 10° 17:22:24 10° 11° (NNE) 2,002 6.0 -13.5°
Maximum altitude 17:26:46 85° 285° (WNW) 631 3.6 -14.3°
Drops below altitude 10° 17:31:05 10° 196° (SSW) 1,985 6.4 -15.1°
Sets 17:33:16 0° 196° (SSW) 2,886 7.2 -15.5°
